Flag Weather past 2 weeks in Chichester, England, United Kingdom

Now
46 °F

Light rain. Cloudy.


Feels Like: 42 °F
Forecast: N/A
Wind: 7 mph from Northeast

Location: Thorney Island

Current Time: Nov 23, 2014 at 5:34:53 PM

Latest Report: Nov 23, 2014 at 4:00 PM


Visibility: 19 mi

Pressure: 30.05 "Hg

Humidity: 94%

Dew point: 44 °F

Location of ChichesterLocation

Historic Weather in Chichester — Graph

°F

Chichester temperature yesterday

Maximum temperature yesterday: 56 °F (at 10:00 AM)
Minimum temperature yesterday: 54 °F (at 12:00 AM)
Average temperature yesterday: 55 °F

Past Weeks' High & Low Weather Summary

 TemperatureHumidityPressure
High58 °F (Nov 14, 12:00 PM)100% (Nov 22, 6:00 AM)30.24 "Hg (Nov 22, 6:00 AM)
Low42 °F (Nov 20, 6:00 PM)69% (Nov 9, 1:00 PM)29.26 "Hg (Nov 12, 2:00 AM)
Average51 °F91%29.68 "Hg
* Reported Nov 8 4:00 PM — Nov 23 4:00 PM, Chichester, Weather by CustomWeather, © 2014

Note: Actual official high and low records may vary slightly from our data, if they occured in-between our weather recording intervals... More about our weather records

Advertising

Chichester weather history for previous 24 hours

 ConditionsComfort  
Time TempWeatherWind HumidityBarometerVisibility
4:00 PM
Nov 23
46 °FLight rain. Cloudy.7 mph94%30.05 "Hg19 mi
3:00 PM46 °FRain. Cloudy.9 mph93%30.03 "Hg8 mi
2:00 PM47 °FRain. Cloudy.8 mph94%30.02 "Hg14 mi
1:00 PM47 °FLight rain. Cloudy.9 mph94%30.00 "Hg22 mi
12:00 PM47 °FRain. Cloudy.9 mph95%30.01 "Hg9 mi
11:00 AM47 °FRain. Cloudy.10 mph95%30.02 "Hg6 mi
10:00 AM48 °FRain. Cloudy.9 mph95%30.02 "Hg5 mi
9:00 AM48 °FRain. Cloudy.8 mph94%30.01 "Hg7 mi
8:00 AM49 °FDrizzle. Cloudy.8 mph96%29.99 "Hg10 mi
7:00 AM50 °FRain showers. Overcast.10 mph93%29.96 "Hg9 mi
6:00 AM51 °FRain. Overcast.9 mph98%29.97 "Hg11 mi
5:00 AM51 °FRain. Overcast.8 mph99%29.96 "Hg6 mi
4:00 AM52 °FRain. Overcast.8 mph99%29.94 "Hg4 mi
3:00 AM52 °FLight rain. Overcast.8 mph99%29.95 "Hg10 mi
2:00 AM53 °FRain showers. Overcast.9 mph100%29.96 "Hg2 mi
1:00 AM54 °FCool.5 mph100%29.96 "Hg2 mi
12:00 AM55 °FRain showers. Overcast.2 mph100%29.98 "Hg1 mi
11:00 PM
Nov 22
55 °FCool.3 mph100%29.97 "Hg1 mi
10:00 PM54 °FRain showers. Overcast.5 mph100%29.97 "Hg1 mi
9:00 PM54 °FCool.2 mph100%29.97 "Hg1 mi
8:00 PM55 °FCool.7 mph100%29.96 "Hg2 mi
7:00 PM54 °FFog.1 mph100%29.95 "Hg1 mi
6:00 PM55 °FFog.5 mph100%29.95 "Hg2 mi
5:00 PM55 °FFog.6 mph100%29.94 "Hg2 mi
Weather by CustomWeather, © 2014

See weather overviewHow to use our weather pages